Paganella, Italy

4:32 AM CEST on April 26, 2018 (GMT +0200)
Paganella

Weather History for LIVP - February, 2013

Change the Weather History Date:

Wednesday, February 27, 2013

  Actual Average Record
Temperature  
Mean Temperature 26 °F -  
Max Temperature 30 °F 30 °F 39 °F (1998)
Min Temperature 21 °F 21 °F -7 °F (2018)
Degree Days  
Heating Degree Days 40    
Moisture  
Dew Point 21 °F    
Average Humidity 77    
Maximum Humidity 100    
Minimum Humidity 50    
Precipitation  
Precipitation 0.00 in 0.05 in - ()
Sea Level Pressure  
Sea Level Pressure 30.02 in    
Wind  
Wind Speed 13 mph ()    
Max Wind Speed 20 mph    
Max Gust Speed -    
Visibility 6.8 miles    
Events Fog    
Averages and records for this station are not official NWS values.
T = Trace of Precipitation, MM = Missing Value Source: Averaged Metar Reports

Daily Weather History Graph

Daily Weather History Graph

Search for Another Location

Airport or City:

Astronomy

Feb. 27, 2013 Rise Set
Actual Time 6:58 AM CET 5:59 PM CET
Civil Twilight 6:28 AM CET 6:29 PM CET
Nautical Twilight 5:53 AM CET 7:04 PM CET
Astronomical Twilight 5:19 AM CET 7:39 PM CET
Moon 8:12 PM CET (2/27) 7:16 AM CET (2/27)
Length of Visible Light 12h 01m
Length of Day
11h 00m
Full, 97% of the Moon is Illuminated
Feb 27
Full
Mar 4
Last Quarter
Mar 11
New
Mar 19
First Quarter
Mar 27
Full

Hourly Weather History & Observations

Time (CET) Temp. Windchill Dew Point Humidity Pressure Visibility Wind Dir Wind Speed Gust Speed Precip Events Conditions
12:55 AM 24.8 °F 10.7 °F 12.2 °F 59% 29.98 in - North 19.6 mph - N/A   Clear
1:00 AM 24 °F - 13 °F 50%  in 25 mi North 19.6 mph - -   Clear
1:55 AM 23.0 °F 8.7 °F 14.0 °F 68% 29.98 in 6.2 mi North 18.4 mph - N/A   Scattered Clouds
2:55 AM 21.2 °F 8.3 °F 17.6 °F 86% 29.98 in 0.6 mi North 13.8 mph - N/A Fog Light Freezing Fog
3:55 AM 23.0 °F 8.3 °F 23.0 °F 100% 29.98 in 0.5 mi North 19.6 mph - N/A Fog Light Freezing Fog
4:00 AM 23 °F - 23 °F 98%  in 0 mi North 19.6 mph - - Fog Heavy Fog
4:55 AM 23.0 °F 8.7 °F 23.0 °F 100% 29.98 in 0.3 mi North 18.4 mph - N/A Fog Light Freezing Fog
5:55 AM 23.0 °F 8.3 °F 23.0 °F 100% 29.98 in 0.5 mi North 19.6 mph - N/A Fog Light Freezing Fog
6:55 AM 23.0 °F 9.2 °F 21.2 °F 93% 29.98 in 4.3 mi North 17.3 mph - N/A   Overcast
7:00 AM 24 °F - 22 °F 87%  in 2 mi North 17.3 mph - - Fog Light Fog
7:55 AM 24.8 °F 12.4 °F 21.2 °F 86% 29.98 in 4.3 mi North 15.0 mph - N/A   Overcast
8:55 AM 24.8 °F 11.5 °F 19.4 °F 80% 30.01 in 6.2 mi NNW 17.3 mph - N/A   Scattered Clouds
9:55 AM 26.6 °F 14.7 °F 19.4 °F 74% 30.01 in 6.2 mi North 15.0 mph - N/A   Scattered Clouds
10:00 AM 26 °F - 19 °F 66%  in 16 mi North 15.0 mph - -   Overcast
10:55 AM 26.6 °F 15.2 °F 19.4 °F 74% 30.04 in 6.2 mi North 13.8 mph - N/A   Scattered Clouds
11:55 AM 28.4 °F 18.0 °F 19.4 °F 69% 30.04 in 6.2 mi North 12.7 mph - N/A   Scattered Clouds
12:55 PM 30.2 °F 21.9 °F 19.4 °F 64% 30.04 in 6.2 mi North 9.2 mph - N/A   Scattered Clouds
1:00 PM 29 °F - 20 °F 57%  in 19 mi North 9.2 mph - -   Partly Cloudy
1:55 PM 30.2 °F 21.3 °F 21.2 °F 69% 30.04 in 6.2 mi NE 10.4 mph - N/A   Mostly Cloudy
2:55 PM 30.2 °F 22.6 °F 17.6 °F 60% 30.04 in 6.2 mi NE 8.1 mph - N/A   Scattered Clouds
3:55 PM 30.2 °F 24.3 °F 21.2 °F 69% 30.04 in 6.2 mi North 5.8 mph - N/A   Overcast
4:00 PM 30 °F - 21 °F 60%  in 19 mi North 5.8 mph - -   Overcast
4:55 PM 28.4 °F 18.5 °F 21.2 °F 74% 30.04 in 6.2 mi NNE 11.5 mph - N/A   Mostly Cloudy
5:55 PM 28.4 °F 18.5 °F 23.0 °F 80% 30.04 in 6.2 mi NE 11.5 mph - N/A   Mostly Cloudy
6:55 PM 28.4 °F 18.5 °F 23.0 °F 80% 30.04 in 6.2 mi East 11.5 mph - N/A   Mostly Cloudy
7:00 PM 28 °F - 23 °F 74%  in 19 mi East 11.5 mph - -   Mostly Cloudy
7:55 PM 28.4 °F 23.3 °F 23.0 °F 80% 30.04 in 6.2 mi NE 4.6 mph - N/A   Mostly Cloudy
8:55 PM 28.4 °F 23.3 °F 23.0 °F 80% 30.06 in 6.2 mi East 4.6 mph - N/A   Mostly Cloudy
9:55 PM 28.4 °F - 23.0 °F 80% 30.06 in 6.2 mi SSE 2.3 mph - N/A   Mostly Cloudy
10:00 PM 28 °F - 23 °F 75%  in 19 mi SSE 2.3 mph - -   Mostly Cloudy
10:55 PM 26.6 °F 16.8 °F 24.8 °F 93% 30.09 in 6.2 mi SSE 10.4 mph - N/A   Mostly Cloudy
11:55 PM 26.6 °F 17.5 °F 24.8 °F 93% 30.09 in 0.0 mi SSE 9.2 mph - N/A Fog Light Freezing Fog